Regional Weather Roundup
Issued by NWS Charleston, SC

Current Version | Previous Version | Text Only | Print | Product List | Glossary Off
Versions: 1 2 3 4 5 6 7 8 9 10 11 12 13 14 15 16 17 18 19 20 21 22 23 24 25 26 27 28 29 30 31 32 33 34 35 36 37 38 39 40 41 42 43 44 45 46 47 48 49 50
000 ASUS42 KCHS 121913 RWRCHS REGIONAL WEATHER ROUNDUP NATIONAL WEATHER SERVICE CHARLESTON SC 200 PM EST FRI FEB 12 2016 NOTE: "FAIR" INDICATES FEW OR NO CLOUDS BELOW 12,000 FEET WITH NO SIGNIFICANT WEATHER AND/OR OBSTRUCTIONS TO VISIBILITY. NOT ALL STATIONS ARE QUALITY CONTROLLED BY THE NATIONAL WEATHER SERVICE. USE DATA WITH CAUTION...ESPECIALLY DEWPOINT OBSERVATIONS. SCZ027-030-031-034>040-042>050-122000- ...SOUTHEAST SOUTH CAROLINA... CITY SKY/WX TMP DP RH WIND PRES REMARKS N CHARLESTON DRIZZLE 54 47 77 NW5 30.03F WATERFRONT PRK N/A 49 48 96 VRB3 29.90F MOUNT PLEASANT CLOUDY 52 46 82 CALM 30.04F JOHNS ISLAND CLOUDY 50 50 100 CALM 30.04F FOG PINOPOLIS N/A 48 43 81 VRB2 29.96F MONCKS CORNER CLOUDY 46 37 71 CALM 30.03F SUMMERVILLE CLOUDY 50 45 81 CALM 30.04F BEAUFORT MCAS CLOUDY 60 52 74 NW9 30.03F BEAUFORT ARPT CLOUDY 61 54 77 CALM 30.02F HILTON HEAD IS PTSUNNY 64 55 72 SW9G17 30.03F WALTERBORO CLOUDY 52 48 87 NW3 30.05F ALLENDALE CLOUDY 52 46 82 CALM 30.03F ...SOUTHERN MIDLANDS AND PEE DEE... CITY SKY/WX TMP DP RH WIND PRES REMARKS GEORGETOWN CLOUDY 46 37 71 CALM 30.04F KINGSTREE CLOUDY 43 28 56 NE3 30.05F ORANGEBURG PTSUNNY 51 37 58 NE6 30.04F BARNWELL FAIR 57 43 58 CALM 30.04F AIKEN FAIR 46 34 61 CALM 30.08F MANNING CLOUDY 45 30 57 NW10 30.06F COLUMBIA PTSUNNY 46 25 43 VRB3 30.06F SUMTER CLOUDY 41 22 47 NE8 30.04 FLORENCE CLOUDY 37 20 50 N12 30.08F WCI 29 MYRTLE BEACH CLOUDY 46 28 49 N14 30.06F N MYRTLE BEACH CLOUDY 43 30 60 N9 30.04F $$ GAZ063-065-086>088-099>101-113>116-118-119-134>141-150-122000- ...SOUTHEAST GEORGIA... CITY SKY/WX TMP DP RH WIND PRES REMARKS SAVANNAH ARPT PTSUNNY 67 53 61 W15 30.03F HUNTER AAF PTSUNNY 67 55 66 SW15 30.00 FORT STEWART PTSUNNY 67 53 60 SW20G26 30.01 STATESBORO MOSUNNY 64 49 57 W15 30.05F SYLVANIA CLOUDY 56 54 92 NW13 30.06F CLAXTON MOCLDY 65 58 77 SW9 30.05F ...CSRA...CENTRAL AND FAR SOUTHEAST GEORGIA... CITY SKY/WX TMP DP RH WIND PRES REMARKS THOMSON SUNNY 53 40 60 CALM 30.10F AUGUSTA-BUSH MOSUNNY 53 37 54 N5 30.06F AUGUSTA-DANIEL MOSUNNY 52 35 52 N5 30.06F SWAINSBORO CLOUDY 55 50 82 W8 30.07F VIDALIA CLOUDY 63 54 72 W7 30.06F EASTMAN CLOUDY 62 54 74 W10G18 30.10F HAZLEHURST CLOUDY 67 55 63 W15 30.06F ALMA PTSUNNY 68 54 60 W15G25 30.07F WAYCROSS CLOUDY 73 59 60 W10G18 30.06F JESUP MOCLDY 70 57 64 W10G22 30.06F BAXLEY CLOUDY 68 55 64 W9G26 30.07F BRUNSWICK PTSUNNY 73 54 49 W16G24 30.05F SAINT SIMONS MOSUNNY 73 52 47 W17G24 30.04F $$ SCZ027-028-034-036>038-045-046-048>050-GAZ119-141-122000- ...LAKE AND SUPPLEMENTAL COASTAL OBSERVATIONS... STATION/POSITION TIME TEMP WIND PRES WAVE SWELL AIR SEA DIR/SP/G HT/PER HT/PER/DIR (UTC) (F) (DEG/KT/KT) (MB) (FT/S) (FT/S/D) WINYAH BAY NOT AVBL LAKE MURRAY 1800 41 20/ 2/ 5 1018.6F ACE BASIN NERRS NOT AVBL FORT PULASKI 1800 63 50 230/ 7/ 12 1018.0F SAPELO ISLAND 1800 66 250/ 9 1018.0F $$ ANZ835-935-AMZ111-154-330-350-352-354-370-450-454-472-122000- ...C-MAN AND BUOY OBSERVATIONS... STATION/POSITION TIME TEMP WIND PRES WAVE SWELL AIR SEA DIR/SP/G HT/PER HT/PER/DIR (UTC) (F) (DEG/KT/KT) (MB) (FT/S) (FT/S/D) BUOY 41004 1850 56 68 300/ 12/ 16 1016.7F 4/ 6 3/ 6 BUOY 41008 1850 56 53 210/ 10/ 10 1017.6F 3/ 6 2/150/ 6 FOLLY BEACH CMAN 1900 48 40/ 6/ 7 1017.2F CAPERS NEARSHORE 1808 48 60/ 8/ 12 1017.5F FRIPP NEARSHORE 1800 54 230/ 14/ 16 1017.5F STATION/POSITION TIME TEMP WIND PRES WAVE SWELL AIR SEA DIR/SP/G HT/PER HT/PER/DIR (UTC) (F) (DEG/KT/KT) (MB) (FT/S) (FT/S/D) 5E ST. MARYS GA 1821 56 N/A 3/ 5 FRYING PAN BUOY 1800 56 54 300/ 6/ 8 1016.1F BUOY 41025 1850 47 59 40/ 10/ 19 1017.7F 4/ 7 3/ 40/ 7 CAPE LOOKOUT NC NOT AVBL BUOY 41002 1850 66 68 230/ 33/ 39 N/A 10/ 7 BUOY 41010 1820 68 72 1023.1F ST AUGUSTINE FL 1900 72 58 250/ 14/ 18 1020.3F $$

USA.gov is the U.S. government's official web portal to all federal, state and local government web resources and services.